TimeCST,TemperatureF,Dew PointF,Humidity,Sea Level PressureIn,VisibilityMPH,Wind Direction,Wind SpeedMPH,Gust SpeedMPH,PrecipitationIn,Events,Conditions,WindDirDegrees,DateUTC
12:15 AM,44.6,26.6,49,30.24,10.0,ESE,5.8,-,N/A,,Mostly Cloudy,120,2013-03-09 06:15:00
12:35 AM,44.6,28.4,53,30.23,10.0,ESE,6.9,-,N/A,,Mostly Cloudy,120,2013-03-09 06:35:00
12:55 AM,44.6,28.4,53,30.22,10.0,East,8.1,-,N/A,,Partly Cloudy,100,2013-03-09 06:55:00
1:15 AM,44.6,28.4,53,30.22,10.0,SE,5.8,-,N/A,,Partly Cloudy,130,2013-03-09 07:15:00
1:35 AM,44.6,28.4,53,30.22,10.0,ESE,8.1,-,N/A,,Partly Cloudy,110,2013-03-09 07:35:00
1:55 AM,44.6,28.4,53,30.20,10.0,ESE,6.9,-,N/A,,Scattered Clouds,110,2013-03-09 07:55:00
2:15 AM,42.8,28.4,57,30.19,10.0,ESE,8.1,-,N/A,,Partly Cloudy,110,2013-03-09 08:15:00
2:35 AM,42.8,28.4,57,30.18,10.0,ESE,6.9,-,N/A,,Clear,110,2013-03-09 08:35:00
2:55 AM,41.0,28.4,61,30.18,10.0,ESE,9.2,-,N/A,,Clear,110,2013-03-09 08:55:00
3:15 AM,41.0,28.4,61,30.18,10.0,ESE,5.8,-,N/A,,Clear,120,2013-03-09 09:15:00
3:35 AM,42.8,28.4,57,30.18,10.0,ESE,5.8,-,N/A,,Clear,120,2013-03-09 09:35:00
3:55 AM,42.8,28.4,57,30.18,10.0,ESE,6.9,-,N/A,,Clear,120,2013-03-09 09:55:00
4:15 AM,42.8,28.4,57,30.18,10.0,ESE,6.9,-,N/A,,Scattered Clouds,120,2013-03-09 10:15:00
4:35 AM,42.8,28.4,57,30.17,10.0,ESE,6.9,-,N/A,,Overcast,110,2013-03-09 10:35:00
4:55 AM,41.0,28.4,61,30.18,10.0,ESE,4.6,-,N/A,,Overcast,120,2013-03-09 10:55:00
5:15 AM,41.0,28.4,61,30.19,10.0,SE,5.8,-,N/A,,Scattered Clouds,130,2013-03-09 11:15:00
5:35 AM,41.0,28.4,61,30.17,10.0,ESE,8.1,-,N/A,,Scattered Clouds,120,2013-03-09 11:35:00
5:55 AM,41.0,28.4,61,30.16,10.0,SE,9.2,-,N/A,,Scattered Clouds,130,2013-03-09 11:55:00
6:15 AM,41.0,28.4,61,30.16,10.0,SE,8.1,-,N/A,,Mostly Cloudy,130,2013-03-09 12:15:00
6:35 AM,41.0,28.4,61,30.17,10.0,ESE,4.6,-,N/A,,Overcast,120,2013-03-09 12:35:00
6:55 AM,42.8,28.4,57,30.18,10.0,SE,5.8,-,N/A,,Overcast,130,2013-03-09 12:55:00
7:15 AM,42.8,30.2,61,30.18,10.0,SE,5.8,-,N/A,,Overcast,130,2013-03-09 13:15:00
7:35 AM,42.8,28.4,57,30.19,10.0,SE,4.6,-,N/A,,Overcast,140,2013-03-09 13:35:00
7:55 AM,44.6,30.2,57,30.19,10.0,SSE,4.6,-,N/A,,Overcast,160,2013-03-09 13:55:00
8:15 AM,44.6,32.0,61,30.18,10.0,SE,4.6,-,N/A,,Overcast,140,2013-03-09 14:15:00
8:35 AM,44.6,30.2,57,30.19,10.0,SSE,5.8,-,N/A,,Overcast,160,2013-03-09 14:35:00
8:55 AM,46.4,30.2,53,30.18,10.0,SSE,6.9,-,N/A,,Overcast,160,2013-03-09 14:55:00
9:15 AM,48.2,28.4,46,30.19,10.0,South,9.2,-,N/A,,Overcast,170,2013-03-09 15:15:00
9:35 AM,50.0,28.4,43,30.19,10.0,South,6.9,-,N/A,,Overcast,170,2013-03-09 15:35:00
9:55 AM,50.0,32.0,50,30.17,10.0,SSE,5.8,-,N/A,,Mostly Cloudy,160,2013-03-09 15:55:00
10:15 AM,51.8,30.2,44,30.17,10.0,South,10.4,-,N/A,,Mostly Cloudy,180,2013-03-09 16:15:00
10:35 AM,51.8,28.4,41,30.17,10.0,South,8.1,-,N/A,,Mostly Cloudy,170,2013-03-09 16:35:00
10:55 AM,50.0,30.2,47,30.15,10.0,SSE,6.9,-,N/A,,Mostly Cloudy,150,2013-03-09 16:55:00
11:15 AM,53.6,32.0,44,30.15,10.0,SSE,9.2,-,N/A,,Mostly Cloudy,150,2013-03-09 17:15:00
11:35 AM,53.6,32.0,44,30.14,10.0,SSE,9.2,-,N/A,,Mostly Cloudy,160,2013-03-09 17:35:00
11:55 AM,57.2,32.0,38,30.13,10.0,SSE,10.4,-,N/A,,Scattered Clouds,160,2013-03-09 17:55:00
12:15 PM,55.4,32.0,41,30.12,10.0,SSE,10.4,18.4,N/A,,Scattered Clouds,160,2013-03-09 18:15:00
12:35 PM,57.2,32.0,38,30.10,10.0,SSE,11.5,17.3,N/A,,Partly Cloudy,160,2013-03-09 18:35:00
12:55 PM,59.0,32.0,36,30.09,10.0,South,4.6,-,N/A,,Clear,170,2013-03-09 18:55:00
1:15 PM,60.8,33.8,36,30.08,10.0,SSE,6.9,-,N/A,,Clear,160,2013-03-09 19:15:00
1:35 PM,62.6,32.0,32,30.07,10.0,SSE,10.4,17.3,N/A,,Clear,150,2013-03-09 19:35:00
1:55 PM,62.6,32.0,32,30.06,10.0,SSE,10.4,17.3,N/A,,Clear,150,2013-03-09 19:55:00
2:15 PM,64.4,32.0,30,30.05,10.0,South,12.7,19.6,N/A,,Clear,170,2013-03-09 20:15:00
2:35 PM,64.4,32.0,30,30.04,10.0,South,10.4,19.6,N/A,,Clear,170,2013-03-09 20:35:00
2:55 PM,64.4,32.0,30,30.04,10.0,SSE,8.1,16.1,N/A,,Clear,150,2013-03-09 20:55:00
3:15 PM,66.2,32.0,28,30.03,10.0,South,11.5,16.1,N/A,,Clear,170,2013-03-09 21:15:00
3:35 PM,62.6,32.0,32,30.02,10.0,SSE,8.1,20.7,N/A,,Clear,150,2013-03-09 21:35:00
3:55 PM,64.4,32.0,30,30.02,10.0,South,13.8,18.4,N/A,,Clear,170,2013-03-09 21:55:00
4:15 PM,64.4,32.0,30,30.01,10.0,South,11.5,17.3,N/A,,Clear,170,2013-03-09 22:15:00
4:35 PM,64.4,32.0,30,30.01,10.0,SSE,9.2,17.3,N/A,,Clear,160,2013-03-09 22:35:00
4:55 PM,64.4,30.2,28,30.01,10.0,South,10.4,17.3,N/A,,Clear,170,2013-03-09 22:55:00
5:15 PM,62.6,32.0,32,30.00,10.0,SSE,8.1,-,N/A,,Clear,150,2013-03-09 23:15:00
5:35 PM,62.6,32.0,32,30.00,10.0,SSE,5.8,-,N/A,,Clear,160,2013-03-09 23:35:00
5:55 PM,60.8,32.0,34,30.00,10.0,SSE,5.8,-,N/A,,Scattered Clouds,150,2013-03-09 23:55:00
6:15 PM,59.0,32.0,36,30.00,10.0,SSE,6.9,-,N/A,,Mostly Cloudy,150,2013-03-10 00:15:00
6:35 PM,59.0,32.0,36,30.00,10.0,SSE,6.9,-,N/A,,Mostly Cloudy,150,2013-03-10 00:35:00
6:55 PM,59.0,32.0,36,29.99,10.0,SSE,6.9,-,N/A,,Mostly Cloudy,150,2013-03-10 00:55:00
7:15 PM,57.2,32.0,38,30.00,10.0,SSE,5.8,-,N/A,,Partly Cloudy,150,2013-03-10 01:15:00
7:35 PM,57.2,32.0,38,30.00,10.0,SSE,4.6,-,N/A,,Clear,160,2013-03-10 01:35:00
7:55 PM,55.4,32.0,41,30.00,10.0,SE,5.8,-,N/A,,Clear,140,2013-03-10 01:55:00
8:15 PM,55.4,32.0,41,29.99,10.0,SE,8.1,-,N/A,,Clear,140,2013-03-10 02:15:00
8:35 PM,57.2,32.0,38,29.99,10.0,SSE,6.9,-,N/A,,Scattered Clouds,150,2013-03-10 02:35:00
8:55 PM,57.2,32.0,38,29.99,10.0,SSE,6.9,-,N/A,,Partly Cloudy,150,2013-03-10 02:55:00
9:15 PM,57.2,33.8,41,29.99,10.0,SSE,6.9,-,N/A,,Clear,150,2013-03-10 03:15:00
9:35 PM,55.4,33.8,44,29.99,10.0,SSE,5.8,-,N/A,,Clear,150,2013-03-10 03:35:00
9:55 PM,55.4,33.8,44,29.99,10.0,SSE,5.8,-,N/A,,Clear,160,2013-03-10 03:55:00
10:15 PM,55.4,33.8,44,29.99,10.0,SSE,5.8,-,N/A,,Clear,160,2013-03-10 04:15:00
10:35 PM,53.6,33.8,47,29.98,10.0,SSE,5.8,-,N/A,,Clear,160,2013-03-10 04:35:00
10:55 PM,53.6,35.6,51,29.96,10.0,SSE,8.1,-,N/A,,Clear,150,2013-03-10 04:55:00
11:15 PM,55.4,33.8,44,29.97,10.0,SSE,6.9,-,N/A,,Clear,150,2013-03-10 05:15:00
11:35 PM,53.6,35.6,51,29.96,10.0,SSE,5.8,-,N/A,,Clear,150,2013-03-10 05:35:00
11:55 PM,51.8,35.6,54,29.95,10.0,SSE,5.8,-,N/A,,Mostly Cloudy,150,2013-03-10 05:55:00